Red Bluff, CA

1:13 AM PST on November 20, 2019 (GMT -0800)
Red Bluff Municipal

Weather History for KRBL - September, 2019

Change the Weather History Date:

Saturday, September 7, 2019

  Actual Average Record
Temperature  
Mean Temperature 73 °F -  
Max Temperature 86 °F 93 °F 109 °F (1957)
Min Temperature 60 °F 62 °F 51 °F (1965)
Cooling Degree Days 8    
Growing Degree Days 23 (Base 50)    
Moisture  
Dew Point 51 °F    
Average Humidity 46    
Maximum Humidity 63    
Minimum Humidity 24    
Precipitation  
Precipitation 0.00 in - - ()
Sea Level Pressure  
Sea Level Pressure 29.92 in    
Wind  
Wind Speed 6 mph (South)    
Max Wind Speed 13 mph    
Max Gust Speed 17 mph    
Visibility 9 miles    
Events      
Averages and records for this station are not official NWS values.
T = Trace of Precipitation, MM = Missing Value Source: NWS Daily Summary

Daily Weather History Graph

Daily Weather History Graph

Search for Another Location

Airport or City:

Astronomy

Sep. 07, 2019 Rise Set
Actual Time 6:42 AM PDT 7:31 PM PDT
Civil Twilight 6:14 AM PDT 7:58 PM PDT
Nautical Twilight 5:41 AM PDT 8:31 PM PDT
Astronomical Twilight 5:08 AM PDT 9:04 PM PDT
Moon 3:52 PM PDT (9/7) 12:38 AM PDT (9/7)
Length of Visible Light 13h 43m
Length of Day
12h 48m
Waxing Gibbous, 67% of the Moon is Illuminated
Sep 7
Waxing Gibbous
Sep 13
Full
Sep 21
Last Quarter
Sep 28
New
Oct 5
First Quarter

Hourly Weather History & Observations

Time (PDT) Temp. Heat Index Dew Point Humidity Pressure Visibility Wind Dir Wind Speed Gust Speed Precip Events Conditions
12:54 AM 66.9 °F - 48.0 °F 51% 29.97 in 10.0 mi WNW 6.9 mph - N/A   Clear
1:54 AM 66.0 °F - 48.9 °F 54% 29.96 in 10.0 mi NW 5.8 mph - N/A   Clear
2:54 AM 64.9 °F - 48.0 °F 54% 29.96 in 10.0 mi WNW 4.6 mph - N/A   Clear
3:54 AM 64.9 °F - 46.9 °F 52% 29.96 in 8.0 mi NW 4.6 mph - N/A   Clear
4:54 AM 62.1 °F - 46.9 °F 58% 29.95 in 7.0 mi NW 3.5 mph - N/A   Clear
5:54 AM 61.0 °F - 46.9 °F 60% 29.95 in 6.0 mi WNW 4.6 mph - N/A   Haze
6:54 AM 61.0 °F - 46.9 °F 60% 29.96 in 4.0 mi Calm Calm - N/A   Haze
7:54 AM 64.0 °F - 46.9 °F 54% 29.96 in 4.0 mi Calm Calm - N/A   Haze
8:54 AM 68.0 °F - 46.9 °F 47% 29.96 in 10.0 mi SE 5.8 mph - N/A   Clear
9:54 AM 73.0 °F - 51.1 °F 46% 29.97 in 10.0 mi SSE 5.8 mph - N/A   Clear
10:54 AM 75.9 °F - 50.0 °F 40% 29.96 in 10.0 mi SSE 6.9 mph - N/A   Clear
11:54 AM 78.1 °F - 52.0 °F 40% 29.94 in 10.0 mi SE 6.9 mph 17.3 mph N/A   Clear
12:54 PM 81.0 °F - 51.1 °F 35% 29.92 in 10.0 mi South 8.1 mph - N/A   Clear
1:54 PM 82.9 °F - 45.0 °F 26% 29.90 in 10.0 mi SSE 12.7 mph - N/A   Clear
2:54 PM 84.9 °F - 48.9 °F 29% 29.89 in 10.0 mi SSE 11.5 mph - N/A   Clear
3:54 PM 84.9 °F 83.2 °F 53.1 °F 33% 29.87 in 10.0 mi SSE 11.5 mph - N/A   Clear
4:54 PM 84.0 °F 82.5 °F 53.1 °F 34% 29.86 in 10.0 mi SSE 10.4 mph - N/A   Clear
5:54 PM 82.9 °F 82.1 °F 55.9 °F 39% 29.85 in 10.0 mi SSE 12.7 mph - N/A   Clear
6:54 PM 80.1 °F 80.6 °F 57.9 °F 47% 29.86 in 10.0 mi SSE 10.4 mph - N/A   Clear
7:54 PM 77.0 °F - 57.0 °F 50% 29.87 in 10.0 mi SSE 8.1 mph - N/A   Clear
8:54 PM 72.0 °F - 53.1 °F 51% 29.90 in 10.0 mi South 5.8 mph - N/A   Clear
9:54 PM 71.1 °F - 54.0 °F 55% 29.91 in 10.0 mi SSE 10.4 mph - N/A   Clear
10:54 PM 69.1 °F - 54.0 °F 58% 29.92 in 10.0 mi South 6.9 mph - N/A   Clear
11:54 PM 66.9 °F - 54.0 °F 63% 29.93 in 10.0 mi SSE 8.1 mph - N/A   Clear